Location: Newark
(34.9500°N, 139.9667°E)
Time: 02:15:26
(UTC+00:00)

Vanguard 1 - Visible Passes

Search period start: 14 December 2019 00:00
Search period end: 24 December 2019 00:00
Orbit: 651 x 3832 km, 34.3° (Epoch: 11 December)

Date Brightness Start Highest point End Pass type
(mag) Time Alt. Az. Time Alt. Az. Time Alt. Az.
14 Dec 13.6 15:31:36 31° ESE 15:31:36 31° ESE 15:43:44 10° ENE visible
14 Dec 12.8 17:44:21 63° SSW 17:48:55 72° SSE 18:10:26 10° ENE visible
14 Dec 12.8 19:57:05 20° W 20:16:40 88° S 20:34:04 10° E visible
15 Dec 13.4 15:51:41 39° ESE 15:51:41 39° ESE 16:05:53 10° ENE visible
15 Dec 12.7 18:04:25 61° SW 18:10:31 79° SSE 18:31:54 10° E visible
15 Dec 12.8 20:17:09 16° W 20:38:29 88° S 20:55:19 10° E visible
16 Dec 13.2 16:11:39 48° ESE 16:11:39 48° ESE 16:27:47 10° ENE visible
16 Dec 12.8 18:24:23 56° WSW 18:32:16 84° SSE 18:53:21 10° E visible
16 Dec 12.8 20:37:06 12° W 21:00:13 85° S 21:16:30 10° ESE visible
17 Dec 14.2 14:18:51 12° E 14:18:51 12° E 14:20:21 10° E visible
17 Dec 13.0 16:31:33 57° ESE 16:31:33 57° ESE 16:49:30 10° ENE visible
17 Dec 12.8 18:44:16 49° WSW 18:54:07 87° S 19:14:47 10° E visible
17 Dec 12.8 20:58:04 10° W 21:21:50 81° SSW 21:37:35 10° ESE visible
18 Dec 14.0 14:38:40 18° E 14:38:40 18° E 14:43:07 10° ENE visible
18 Dec 12.8 16:51:23 67° ESE 16:51:23 67° ESE 17:11:09 10° ENE visible
18 Dec 12.8 19:04:06 42° W 19:16:01 88° S 19:36:12 10° E visible
19 Dec 13.8 14:58:27 23° E 14:58:27 23° E 15:05:24 10° ENE visible
19 Dec 12.7 17:11:10 77° SE 17:11:10 77° SE 17:32:46 10° E visible
19 Dec 12.8 19:23:52 35° W 19:37:55 88° S 19:57:34 10° E visible
20 Dec 13.6 15:18:11 30° E 15:18:11 30° E 15:27:24 10° ENE visible
20 Dec 12.6 17:30:54 84° S 17:31:18 84° SSE 17:54:23 10° E visible
20 Dec 12.8 19:43:36 29° W 19:59:45 85° S 20:18:52 10° ESE visible
21 Dec 13.5 15:37:54 36° E 15:37:54 36° E 15:49:16 10° ENE visible
21 Dec 12.6 17:50:37 78° WSW 17:53:08 87° S 18:15:58 10° E visible
21 Dec 12.9 20:03:19 23° W 20:21:29 81° SSW 20:40:02 10° ESE visible
22 Dec 13.3 15:57:35 44° E 15:57:35 44° E 16:11:03 10° ENE visible
22 Dec 12.6 18:10:17 69° W 18:15:04 88° S 18:37:33 10° E visible
22 Dec 12.9 20:22:59 18° W 20:43:03 74° SSW 21:01:03 10° ESE visible
23 Dec 13.1 16:17:15 52° E 16:17:15 52° E 16:32:49 10° E visible
23 Dec 12.7 18:29:57 59° W 18:36:59 88° S 18:59:04 10° E visible
23 Dec 13.0 20:42:39 13° WNW 21:04:25 66° SSW 21:21:53 10° SE visible
